Tracking 27111 objects as of 29-Mar-2023
HD Live streaming from Space Station
objects crossing your sky now

STARLINK-5289

Track STARLINK-5289 now!
10-day predictions
STARLINK-5289 is classified as:


NORAD ID: 55278
Int'l Code: 2023-010K
Perigee: 530.0 km
Apogee: 534.5 km
Inclination: 70.0 °
Period: 95.1 minutes
Semi major axis: 6903 km
RCS: Unknown
Launch date: January 19, 2023
Source: United States (US)
Launch site: AIR FORCE WESTERN TEST RANGE (AFWTR)
Your satellite tracking list
Your tracking list is empty




NASA's NSSDC Master Catalog

Two Line Element Set (TLE):
1 55278U 23010K   23087.75001157 -.01049886  00000-0 -62834-1 0  9991
2 55278  70.0004 240.0774 0003279 272.5237  89.8189 15.13628140 11144
Source of the keplerian elements: AFSPC